Time,TemperatureF,DewpointF,PressureIn,WindDirection,WindDirectionDegrees,WindSpeedMPH,WindSpeedGustMPH,Humidity,HourlyPrecipIn,Conditions,Clouds,dailyrainin,SoftwareType,DateUTC
2013-02-19 00:04:00,45.5,37.1,29.92,WSW,248,3.8,4.0,72,0.00,,,0.00,WUHU216HW,2013-02-19 08:04:00,
2013-02-19 00:09:00,45.4,36.9,29.92,WSW,248,1.1,4.0,72,0.00,,,0.00,WUHU216HW,2013-02-19 08:09:00,
2013-02-19 00:14:00,45.4,36.9,29.92,WSW,248,4.0,4.0,72,0.00,,,0.00,WUHU216HW,2013-02-19 08:14:00,
2013-02-19 00:19:00,45.4,36.9,29.92,West,270,3.1,6.9,72,0.00,,,0.00,WUHU216HW,2013-02-19 08:19:00,
2013-02-19 00:24:00,45.2,36.7,29.92,West,270,4.7,6.9,72,0.00,,,0.00,WUHU216HW,2013-02-19 08:24:00,
2013-02-19 00:29:00,45.2,36.4,29.92,NE,45,5.1,5.1,71,0.00,,,0.00,WUHU216HW,2013-02-19 08:29:00,
2013-02-19 00:34:00,45.4,36.6,29.92,WNW,293,7.8,7.8,71,0.00,,,0.00,WUHU216HW,2013-02-19 08:34:00,
2013-02-19 00:39:00,45.4,36.6,29.92,West,270,2.5,7.8,71,0.00,,,0.00,WUHU216HW,2013-02-19 08:39:00,
2013-02-19 00:44:00,45.4,36.2,29.92,SSW,203,1.8,7.8,70,0.00,,,0.00,WUHU216HW,2013-02-19 08:44:00,
2013-02-19 00:49:00,45.4,36.2,29.92,WSW,248,4.0,6.3,70,0.00,,,0.00,WUHU216HW,2013-02-19 08:49:00,
2013-02-19 00:54:00,45.4,36.2,29.92,WNW,293,1.6,6.3,70,0.00,,,0.00,WUHU216HW,2013-02-19 08:54:00,
2013-02-19 00:59:00,45.5,36.4,29.92,West,270,5.4,6.3,70,0.00,,,0.00,WUHU216HW,2013-02-19 08:59:00,
2013-02-19 01:04:00,45.5,36.4,29.92,West,270,6.3,6.3,70,0.00,,,0.00,WUHU216HW,2013-02-19 09:04:00,
2013-02-19 01:09:00,45.5,36.7,29.92,West,270,4.7,6.3,71,0.00,,,0.00,WUHU216HW,2013-02-19 09:09:00,
2013-02-19 01:15:00,45.5,36.7,29.92,WSW,248,3.4,5.1,71,0.00,,,0.00,WUHU216HW,2013-02-19 09:15:00,
2013-02-19 01:20:00,45.5,36.7,29.92,WNW,293,2.9,3.6,71,0.00,,,0.00,WUHU216HW,2013-02-19 09:20:00,
2013-02-19 01:25:00,45.5,36.7,29.92,WNW,293,1.6,5.6,71,0.00,,,0.00,WUHU216HW,2013-02-19 09:25:00,
2013-02-19 01:30:00,45.5,36.7,29.92,WSW,248,4.0,5.6,71,0.00,,,0.00,WUHU216HW,2013-02-19 09:30:00,
2013-02-19 01:35:00,45.5,36.7,29.92,West,270,1.6,4.7,71,0.00,,,0.00,WUHU216HW,2013-02-19 09:35:00,
2013-02-19 01:40:00,45.5,36.7,29.92,West,270,2.0,3.4,71,0.00,,,0.00,WUHU216HW,2013-02-19 09:40:00,
2013-02-19 01:45:00,45.5,36.7,29.92,West,270,1.1,2.0,71,0.00,,,0.00,WUHU216HW,2013-02-19 09:45:00,
2013-02-19 01:50:00,45.5,36.7,29.92,West,270,0.7,1.3,71,0.00,,,0.00,WUHU216HW,2013-02-19 09:50:00,
2013-02-19 01:55:00,45.5,36.7,29.92,WSW,248,0.4,1.1,71,0.00,,,0.00,WUHU216HW,2013-02-19 09:55:00,
2013-02-19 02:00:00,45.5,37.1,29.92,SW,225,1.6,2.7,72,0.00,,,0.00,WUHU216HW,2013-02-19 10:00:00,
2013-02-19 02:05:00,45.5,37.1,29.92,WSW,248,4.0,6.9,72,0.00,,,0.00,WUHU216HW,2013-02-19 10:05:00,
2013-02-19 02:10:00,45.5,37.1,29.92,SSW,203,0.7,6.9,72,0.00,,,0.00,WUHU216HW,2013-02-19 10:10:00,
2013-02-19 02:15:00,45.5,37.1,29.91,West,270,3.8,3.8,72,0.00,,,0.00,WUHU216HW,2013-02-19 10:15:00,
2013-02-19 02:20:00,45.5,37.4,29.91,West,270,3.1,5.4,73,0.00,,,0.00,WUHU216HW,2013-02-19 10:20:00,
2013-02-19 02:26:00,45.5,37.7,29.91,SW,225,5.1,5.4,74,0.00,,,0.00,WUHU216HW,2013-02-19 10:26:00,
2013-02-19 02:31:00,45.5,37.7,29.90,WSW,248,4.9,5.1,74,0.00,,,0.00,WUHU216HW,2013-02-19 10:31:00,
2013-02-19 02:36:00,45.5,37.7,29.91,SW,225,5.8,5.8,74,0.00,,,0.00,WUHU216HW,2013-02-19 10:36:00,
2013-02-19 02:41:00,45.4,37.5,29.90,West,270,2.0,5.8,74,0.00,,,0.00,WUHU216HW,2013-02-19 10:41:00,
2013-02-19 02:46:00,45.2,37.7,29.90,NW,315,1.3,4.3,75,0.00,,,0.00,WUHU216HW,2013-02-19 10:46:00,
2013-02-19 02:51:00,45.0,37.5,29.90,SW,225,0.0,4.3,75,0.00,,,0.00,WUHU216HW,2013-02-19 10:51:00,
2013-02-19 02:56:00,44.6,37.2,29.90,ENE,68,0.0,2.5,75,0.00,,,0.00,WUHU216HW,2013-02-19 10:56:00,
2013-02-19 03:01:00,44.5,37.0,29.90,North,0,0.0,0.4,75,0.00,,,0.00,WUHU216HW,2013-02-19 11:01:00,
2013-02-19 03:06:00,44.3,36.8,29.89,West,270,0.0,0.7,75,0.00,,,0.00,WUHU216HW,2013-02-19 11:06:00,
2013-02-19 03:11:00,44.1,36.6,29.89,South,180,0.4,0.7,75,0.00,,,0.00,WUHU216HW,2013-02-19 11:11:00,
2013-02-19 03:16:00,43.9,36.8,29.89,North,0,0.0,0.4,76,0.00,,,0.00,WUHU216HW,2013-02-19 11:16:00,
2013-02-19 03:21:00,43.6,36.5,29.89,NNE,23,0.0,0.4,76,0.00,,,0.00,WUHU216HW,2013-02-19 11:21:00,
2013-02-19 03:26:00,43.6,36.5,29.89,NNE,23,0.0,0.4,76,0.00,,,0.00,WUHU216HW,2013-02-19 11:26:00,
2013-02-19 03:31:00,43.4,36.6,29.89,NNE,23,0.0,0.4,77,0.00,,,0.00,WUHU216HW,2013-02-19 11:31:00,
2013-02-19 03:36:00,43.4,36.6,29.89,East,90,0.9,0.9,77,0.00,,,0.00,WUHU216HW,2013-02-19 11:36:00,
2013-02-19 03:41:00,43.4,36.6,29.89,ENE,68,0.0,0.9,77,0.00,,,0.00,WUHU216HW,2013-02-19 11:41:00,
2013-02-19 03:47:00,43.4,36.6,29.89,ENE,68,0.0,0.4,77,0.00,,,0.00,WUHU216HW,2013-02-19 11:47:00,
2013-02-19 03:52:00,43.4,36.6,29.88,NE,45,0.0,0.4,77,0.00,,,0.00,WUHU216HW,2013-02-19 11:52:00,
2013-02-19 03:57:00,43.4,37.0,29.88,NE,45,0.2,0.4,78,0.00,,,0.00,WUHU216HW,2013-02-19 11:57:00,
2013-02-19 04:02:00,43.4,36.6,29.88,NE,45,0.0,0.4,77,0.00,,,0.00,WUHU216HW,2013-02-19 12:02:00,
2013-02-19 04:07:00,43.6,37.2,29.88,NE,45,0.0,0.2,78,0.00,,,0.00,WUHU216HW,2013-02-19 12:07:00,
2013-02-19 04:12:00,43.6,37.2,29.88,ENE,68,0.7,0.9,78,0.00,,,0.00,WUHU216HW,2013-02-19 12:12:00,
2013-02-19 04:17:00,43.6,37.2,29.88,East,90,0.4,0.9,78,0.00,,,0.00,WUHU216HW,2013-02-19 12:17:00,
2013-02-19 04:22:00,43.6,37.2,29.88,SSE,158,0.2,0.4,78,0.00,,,0.00,WUHU216HW,2013-02-19 12:22:00,
2013-02-19 04:27:00,43.6,37.2,29.88,ESE,113,0.2,0.4,78,0.00,,,0.00,WUHU216HW,2013-02-19 12:27:00,
2013-02-19 04:32:00,43.6,37.2,29.88,SSE,158,0.0,0.4,78,0.00,,,0.00,WUHU216HW,2013-02-19 12:32:00,
2013-02-19 04:37:00,43.7,37.6,29.88,SSE,158,1.8,1.8,79,0.00,,,0.00,WUHU216HW,2013-02-19 12:37:00,
2013-02-19 04:42:00,43.7,37.6,29.88,SSE,158,0.2,1.8,79,0.00,,,0.00,WUHU216HW,2013-02-19 12:42:00,
2013-02-19 04:47:00,43.7,38.0,29.88,SE,135,0.2,0.9,80,0.00,,,0.00,WUHU216HW,2013-02-19 12:47:00,
2013-02-19 04:52:00,43.7,38.0,29.88,SE,135,0.4,0.9,80,0.00,,,0.00,WUHU216HW,2013-02-19 12:52:00,
2013-02-19 04:57:00,43.7,38.0,29.87,ESE,113,0.0,1.1,80,0.00,,,0.00,WUHU216HW,2013-02-19 12:57:00,
2013-02-19 05:03:00,43.6,38.1,29.87,ESE,113,0.9,1.1,81,0.00,,,0.00,WUHU216HW,2013-02-19 13:03:00,
2013-02-19 05:08:00,43.6,38.1,29.87,South,180,1.3,1.8,81,0.00,,,0.00,WUHU216HW,2013-02-19 13:08:00,
2013-02-19 05:13:00,43.7,38.6,29.87,SE,135,1.3,1.8,82,0.00,,,0.00,WUHU216HW,2013-02-19 13:13:00,
2013-02-19 05:18:00,43.6,38.4,29.87,SE,135,1.1,1.3,82,0.00,,,0.00,WUHU216HW,2013-02-19 13:18:00,
2013-02-19 05:23:00,43.6,38.7,29.87,SSE,158,1.1,2.5,83,0.00,,,0.00,WUHU216HW,2013-02-19 13:23:00,
2013-02-19 05:28:00,43.6,38.7,29.87,East,90,0.7,2.5,83,0.00,,,0.00,WUHU216HW,2013-02-19 13:28:00,
2013-02-19 05:33:00,43.6,38.7,29.87,SSE,158,0.2,1.8,83,0.00,,,0.00,WUHU216HW,2013-02-19 13:33:00,
2013-02-19 05:38:00,43.6,39.1,29.87,South,180,0.4,2.2,84,0.00,,,0.00,WUHU216HW,2013-02-19 13:38:00,
2013-02-19 05:43:00,43.6,39.1,29.87,SE,135,0.7,2.5,84,0.00,,,0.00,WUHU216HW,2013-02-19 13:43:00,
2013-02-19 05:48:00,43.6,39.1,29.86,SSW,203,1.6,3.8,84,0.00,,,0.00,WUHU216HW,2013-02-19 13:48:00,
2013-02-19 05:54:00,43.6,39.1,29.86,SE,135,1.1,3.8,84,0.00,,,0.00,WUHU216HW,2013-02-19 13:54:00,
2013-02-19 05:59:00,43.4,38.5,29.86,SE,135,0.9,2.5,83,0.00,,,0.00,WUHU216HW,2013-02-19 13:59:00,
2013-02-19 06:04:00,43.6,38.7,29.85,SSW,203,0.9,1.8,83,0.00,,,0.00,WUHU216HW,2013-02-19 14:04:00,
2013-02-19 06:09:00,43.6,38.7,29.85,SSW,203,1.8,4.0,83,0.00,,,0.00,WUHU216HW,2013-02-19 14:09:00,
2013-02-19 06:14:00,43.7,38.9,29.85,SSE,158,2.5,4.0,83,0.00,,,0.00,WUHU216HW,2013-02-19 14:14:00,
2013-02-19 06:19:00,43.9,38.8,29.85,SSE,158,1.8,3.4,82,0.00,,,0.00,WUHU216HW,2013-02-19 14:19:00,
2013-02-19 06:24:00,44.1,38.6,29.85,SSE,158,1.1,1.8,81,0.00,,,0.00,WUHU216HW,2013-02-19 14:24:00,
2013-02-19 06:29:00,44.3,38.8,29.84,SSW,203,1.3,3.4,81,0.00,,,0.00,WUHU216HW,2013-02-19 14:29:00,
2013-02-19 06:34:00,44.3,38.8,29.84,SSW,203,2.5,3.4,81,0.00,,,0.00,WUHU216HW,2013-02-19 14:34:00,
2013-02-19 06:39:00,44.3,38.8,29.84,SE,135,0.7,2.5,81,0.00,,,0.00,WUHU216HW,2013-02-19 14:39:00,
2013-02-19 06:44:00,44.3,39.2,29.84,South,180,2.0,2.2,82,0.00,,,0.00,WUHU216HW,2013-02-19 14:44:00,
2013-02-19 06:49:00,44.3,39.2,29.84,SW,225,0.4,2.0,82,0.00,,,0.00,WUHU216HW,2013-02-19 14:49:00,
2013-02-19 06:54:00,44.1,39.2,29.84,SSE,158,0.4,1.3,83,0.00,,,0.00,WUHU216HW,2013-02-19 14:54:00,
2013-02-19 06:59:00,44.1,39.2,29.84,South,180,0.9,0.9,83,0.00,,,0.00,WUHU216HW,2013-02-19 14:59:00,
2013-02-19 07:05:00,43.9,39.1,29.85,WSW,248,2.9,2.9,83,0.00,,,0.00,WUHU216HW,2013-02-19 15:05:00,
2013-02-19 07:10:00,43.9,39.4,29.84,South,180,0.0,2.9,84,0.00,,,0.00,WUHU216HW,2013-02-19 15:10:00,
2013-02-19 07:15:00,43.7,39.5,29.84,SSW,203,1.1,2.9,85,0.00,,,0.00,WUHU216HW,2013-02-19 15:15:00,
2013-02-19 07:20:00,43.7,39.5,29.84,SW,225,2.7,3.4,85,0.00,,,0.00,WUHU216HW,2013-02-19 15:20:00,
2013-02-19 07:25:00,43.6,39.6,29.84,SSE,158,3.1,3.8,86,0.02,,,0.02,WUHU216HW,2013-02-19 15:25:00,
2013-02-19 07:30:00,43.6,39.6,29.84,SSE,158,0.9,4.3,86,0.02,,,0.02,WUHU216HW,2013-02-19 15:30:00,
2013-02-19 07:35:00,43.4,39.4,29.84,South,180,0.7,2.5,86,0.02,,,0.02,WUHU216HW,2013-02-19 15:35:00,
2013-02-19 07:40:00,43.4,39.8,29.84,SE,135,2.5,2.5,87,0.02,,,0.02,WUHU216HW,2013-02-19 15:40:00,
2013-02-19 07:45:00,43.4,39.8,29.84,SSE,158,1.1,4.5,87,0.02,,,0.02,WUHU216HW,2013-02-19 15:45:00,
2013-02-19 07:51:00,43.4,40.1,29.84,South,180,2.5,5.1,88,0.02,,,0.02,WUHU216HW,2013-02-19 15:51:00,
2013-02-19 07:56:00,43.6,40.0,29.83,South,180,2.0,5.1,87,0.02,,,0.02,WUHU216HW,2013-02-19 15:56:00,
2013-02-19 08:01:00,43.6,40.0,29.83,SSE,158,3.4,4.7,87,0.02,,,0.02,WUHU216HW,2013-02-19 16:01:00,
2013-02-19 08:06:00,43.7,40.2,29.83,East,90,1.8,3.6,87,0.02,,,0.02,WUHU216HW,2013-02-19 16:06:00,
2013-02-19 08:11:00,43.7,40.2,29.83,South,180,3.4,3.6,87,0.02,,,0.02,WUHU216HW,2013-02-19 16:11:00,
2013-02-19 08:16:00,43.9,40.3,29.83,South,180,1.1,3.4,87,0.02,,,0.02,WUHU216HW,2013-02-19 16:16:00,
2013-02-19 08:21:00,43.9,40.3,29.82,ESE,113,0.9,3.1,87,0.00,,,0.02,WUHU216HW,2013-02-19 16:21:00,
2013-02-19 08:26:00,43.9,40.3,29.82,South,180,6.3,6.3,87,0.00,,,0.02,WUHU216HW,2013-02-19 16:26:00,
2013-02-19 08:31:00,43.9,40.3,29.82,SSE,158,1.6,6.3,87,0.00,,,0.02,WUHU216HW,2013-02-19 16:31:00,
2013-02-19 08:36:00,44.1,40.5,29.82,SSE,158,1.1,6.3,87,0.00,,,0.02,WUHU216HW,2013-02-19 16:36:00,
2013-02-19 08:41:00,44.3,40.7,29.82,SSE,158,2.5,4.7,87,0.00,,,0.02,WUHU216HW,2013-02-19 16:41:00,
2013-02-19 08:47:00,44.3,40.7,29.82,SSE,158,5.4,5.4,87,0.00,,,0.02,WUHU216HW,2013-02-19 16:47:00,
2013-02-19 08:52:00,44.5,40.5,29.82,SSW,203,2.0,6.3,86,0.00,,,0.02,WUHU216HW,2013-02-19 16:52:00,
2013-02-19 08:57:00,44.6,40.7,29.81,SSE,158,0.9,6.3,86,0.00,,,0.02,WUHU216HW,2013-02-19 16:57:00,
2013-02-19 09:02:00,45.0,40.8,29.81,South,180,6.0,6.0,85,0.00,,,0.02,WUHU216HW,2013-02-19 17:02:00,
2013-02-19 09:07:00,45.2,40.7,29.80,SSE,158,1.6,6.3,84,0.00,,,0.02,WUHU216HW,2013-02-19 17:07:00,
2013-02-19 09:12:00,45.4,40.9,29.80,SE,135,5.1,7.6,84,0.00,,,0.02,WUHU216HW,2013-02-19 17:12:00,
2013-02-19 09:17:00,45.5,40.7,29.79,West,270,1.1,7.6,83,0.00,,,0.02,WUHU216HW,2013-02-19 17:17:00,
2013-02-19 09:22:00,45.7,40.6,29.79,South,180,6.5,6.5,82,0.00,,,0.02,WUHU216HW,2013-02-19 17:22:00,
2013-02-19 09:27:00,46.1,41.0,29.79,SW,225,6.9,6.9,82,0.00,,,0.02,WUHU216HW,2013-02-19 17:27:00,
2013-02-19 09:32:00,46.3,41.4,29.79,SSW,203,5.1,9.2,83,0.00,,,0.02,WUHU216HW,2013-02-19 17:32:00,
2013-02-19 09:39:00,46.3,41.4,29.79,South,180,5.4,7.2,83,0.00,,,0.02,WUHU216HW,2013-02-19 17:39:00,
2013-02-19 09:44:00,46.3,41.4,29.78,South,180,6.3,9.2,83,0.00,,,0.02,WUHU216HW,2013-02-19 17:44:00,
2013-02-19 09:49:00,46.6,41.8,29.78,SSE,158,4.5,9.2,83,0.00,,,0.02,WUHU216HW,2013-02-19 17:49:00,
2013-02-19 09:54:00,46.8,41.6,29.79,SSW,203,4.0,6.0,82,0.00,,,0.02,WUHU216HW,2013-02-19 17:54:00,
2013-02-19 10:00:00,46.4,41.6,29.78,SW,225,5.1,6.5,83,0.02,,,0.04,WUHU216HW,2013-02-19 18:00:00,
2013-02-19 10:05:00,46.1,41.6,29.79,SW,225,4.5,6.9,84,0.05,,,0.07,WUHU216HW,2013-02-19 18:05:00,
2013-02-19 10:11:00,45.5,41.1,29.79,South,180,3.8,9.8,84,0.09,,,0.11,WUHU216HW,2013-02-19 18:11:00,
2013-02-19 10:16:00,45.2,41.0,29.79,SW,225,5.4,9.8,85,0.11,,,0.13,WUHU216HW,2013-02-19 18:16:00,
2013-02-19 10:21:00,45.0,41.0,29.79,West,270,0.4,6.9,86,0.15,,,0.17,WUHU216HW,2013-02-19 18:21:00,
2013-02-19 10:26:00,44.6,41.1,29.80,WSW,248,6.7,7.6,87,0.22,,,0.24,WUHU216HW,2013-02-19 18:26:00,
2013-02-19 10:31:00,44.3,40.1,29.80,West,270,3.4,7.6,85,0.24,,,0.26,WUHU216HW,2013-02-19 18:31:00,
2013-02-19 10:36:00,43.6,39.3,29.80,West,270,6.5,8.1,85,0.28,,,0.30,WUHU216HW,2013-02-19 18:36:00,
2013-02-19 10:41:00,43.0,38.8,29.80,WSW,248,10.1,10.1,85,0.35,,,0.37,WUHU216HW,2013-02-19 18:41:00,
2013-02-19 10:46:00,42.8,38.9,29.80,West,270,4.3,10.1,86,0.37,,,0.39,WUHU216HW,2013-02-19 18:46:00,
2013-02-19 10:51:00,42.8,39.3,29.80,SW,225,2.7,8.1,87,0.41,,,0.43,WUHU216HW,2013-02-19 18:51:00,
2013-02-19 10:56:00,42.7,39.1,29.79,WNW,293,2.5,5.6,87,0.43,,,0.45,WUHU216HW,2013-02-19 18:56:00,
2013-02-19 11:01:00,42.7,39.1,29.79,WNW,293,2.5,5.6,87,0.44,,,0.48,WUHU216HW,2013-02-19 19:01:00,
2013-02-19 11:06:00,42.5,38.9,29.79,West,270,1.8,3.4,87,0.39,,,0.48,WUHU216HW,2013-02-19 19:06:00,
2013-02-19 11:11:00,42.5,38.9,29.79,West,270,3.1,3.6,87,0.39,,,0.50,WUHU216HW,2013-02-19 19:11:00,
2013-02-19 11:16:00,42.7,39.1,29.80,NNW,338,0.0,3.6,87,0.37,,,0.52,WUHU216HW,2013-02-19 19:16:00,
2013-02-19 11:21:00,42.7,39.3,29.79,NNW,338,2.7,2.7,88,0.37,,,0.54,WUHU216HW,2013-02-19 19:21:00,
2013-02-19 11:27:00,42.7,39.3,29.79,West,270,4.7,4.7,88,0.32,,,0.56,WUHU216HW,2013-02-19 19:27:00,
2013-02-19 11:32:00,42.7,39.3,29.79,NNW,338,0.4,4.7,88,0.31,,,0.59,WUHU216HW,2013-02-19 19:32:00,
2013-02-19 11:37:00,42.8,39.5,29.79,West,270,0.0,2.9,88,0.27,,,0.59,WUHU216HW,2013-02-19 19:37:00,
2013-02-19 11:42:00,42.8,39.5,29.79,NNW,338,2.0,4.0,88,0.24,,,0.61,WUHU216HW,2013-02-19 19:42:00,
2013-02-19 11:47:00,42.7,39.1,29.79,NW,315,2.9,4.0,87,0.20,,,0.61,WUHU216HW,2013-02-19 19:47:00,
2013-02-19 11:52:00,42.7,39.1,29.78,NNW,338,0.4,3.1,87,0.18,,,0.61,WUHU216HW,2013-02-19 19:52:00,
2013-02-19 11:57:00,42.8,39.3,29.78,ENE,68,0.0,2.5,87,0.16,,,0.61,WUHU216HW,2013-02-19 19:57:00,
2013-02-19 12:02:00,43.0,39.4,29.78,WSW,248,0.4,1.6,87,0.13,,,0.61,WUHU216HW,2013-02-19 20:02:00,
2013-02-19 12:07:00,43.2,39.2,29.78,WNW,293,0.7,1.6,86,0.11,,,0.61,WUHU216HW,2013-02-19 20:07:00,
2013-02-19 12:12:00,43.4,39.4,29.77,South,180,0.9,1.6,86,0.09,,,0.61,WUHU216HW,2013-02-19 20:12:00,
2013-02-19 12:17:00,43.4,39.2,29.77,SSE,158,0.0,1.6,85,0.09,,,0.61,WUHU216HW,2013-02-19 20:17:00,
2013-02-19 12:22:00,43.4,39.4,29.77,East,90,0.7,1.6,86,0.05,,,0.61,WUHU216HW,2013-02-19 20:22:00,
2013-02-19 12:27:00,43.6,39.6,29.77,ENE,68,0.4,1.6,86,0.05,,,0.61,WUHU216HW,2013-02-19 20:27:00,
2013-02-19 12:33:00,43.7,39.8,29.77,East,90,0.9,1.6,86,0.02,,,0.61,WUHU216HW,2013-02-19 20:33:00,
2013-02-19 12:38:00,44.1,40.1,29.77,East,90,0.9,2.5,86,0.00,,,0.61,WUHU216HW,2013-02-19 20:38:00,
2013-02-19 12:43:00,44.1,39.9,29.76,ESE,113,2.0,2.5,85,0.00,,,0.61,WUHU216HW,2013-02-19 20:43:00,
2013-02-19 12:48:00,43.9,39.7,29.76,ESE,113,0.2,2.0,85,0.00,,,0.61,WUHU216HW,2013-02-19 20:48:00,
2013-02-19 12:53:00,43.9,39.7,29.76,NNW,338,0.4,1.1,85,0.02,,,0.63,WUHU216HW,2013-02-19 20:53:00,
2013-02-19 12:58:00,43.6,39.3,29.78,NNW,338,2.5,4.3,85,0.04,,,0.65,WUHU216HW,2013-02-19 20:58:00,
2013-02-19 13:03:00,42.8,38.6,29.78,WNW,293,3.8,5.4,85,0.06,,,0.67,WUHU216HW,2013-02-19 21:03:00,
2013-02-19 13:09:00,42.1,37.6,29.78,West,270,6.0,9.2,84,0.06,,,0.67,WUHU216HW,2013-02-19 21:09:00,
2013-02-19 13:14:00,41.6,37.1,29.77,WSW,248,5.1,9.2,84,0.06,,,0.67,WUHU216HW,2013-02-19 21:14:00,
2013-02-19 13:19:00,41.4,37.2,29.77,West,270,3.1,5.8,85,0.08,,,0.69,WUHU216HW,2013-02-19 21:19:00,
2013-02-19 13:24:00,41.4,37.4,29.77,West,270,1.8,6.0,86,0.08,,,0.69,WUHU216HW,2013-02-19 21:24:00,
2013-02-19 13:29:00,41.4,37.4,29.77,WNW,293,2.5,6.0,86,0.08,,,0.69,WUHU216HW,2013-02-19 21:29:00,
2013-02-19 13:34:00,41.4,37.4,29.77,WNW,293,5.4,5.8,86,0.08,,,0.69,WUHU216HW,2013-02-19 21:34:00,
2013-02-19 13:39:00,41.4,37.4,29.77,WNW,293,2.7,5.8,86,0.08,,,0.69,WUHU216HW,2013-02-19 21:39:00,
2013-02-19 13:44:00,41.6,38.0,29.77,West,270,2.5,5.4,87,0.11,,,0.72,WUHU216HW,2013-02-19 21:44:00,
2013-02-19 13:49:00,41.6,37.6,29.76,NNW,338,0.4,5.4,86,0.09,,,0.72,WUHU216HW,2013-02-19 21:49:00,
2013-02-19 13:54:00,41.8,37.8,29.76,WNW,293,0.0,4.9,86,0.09,,,0.72,WUHU216HW,2013-02-19 21:54:00,
2013-02-19 13:59:00,41.8,37.8,29.76,WNW,293,0.4,2.0,86,0.05,,,0.72,WUHU216HW,2013-02-19 21:59:00,
2013-02-19 14:04:00,41.9,38.0,29.75,West,270,1.8,4.3,86,0.05,,,0.72,WUHU216HW,2013-02-19 22:04:00,
2013-02-19 14:10:00,41.8,37.5,29.74,WSW,248,3.4,4.3,85,0.05,,,0.72,WUHU216HW,2013-02-19 22:10:00,
2013-02-19 14:15:00,41.8,37.8,29.74,WSW,248,0.4,3.6,86,0.05,,,0.72,WUHU216HW,2013-02-19 22:15:00,
2013-02-19 14:20:00,42.5,38.5,29.74,West,270,3.4,3.4,86,0.03,,,0.72,WUHU216HW,2013-02-19 22:20:00,
2013-02-19 14:25:00,43.7,40.2,29.74,WNW,293,1.8,3.4,87,0.03,,,0.72,WUHU216HW,2013-02-19 22:25:00,
2013-02-19 14:30:00,44.5,40.5,29.74,SW,225,2.0,2.7,86,0.03,,,0.72,WUHU216HW,2013-02-19 22:30:00,
2013-02-19 14:35:00,44.8,39.3,29.74,WSW,248,4.7,10.5,81,0.03,,,0.72,WUHU216HW,2013-02-19 22:35:00,
2013-02-19 14:40:00,45.0,39.5,29.74,West,270,5.4,10.5,81,0.03,,,0.72,WUHU216HW,2013-02-19 22:40:00,
2013-02-19 14:45:00,45.4,39.9,29.73,SSW,203,2.2,9.6,81,0.00,,,0.72,WUHU216HW,2013-02-19 22:45:00,
2013-02-19 14:50:00,45.7,40.2,29.74,WSW,248,4.5,9.6,81,0.00,,,0.72,WUHU216HW,2013-02-19 22:50:00,
2013-02-19 14:55:00,46.1,40.3,29.74,West,270,3.1,6.9,80,0.00,,,0.72,WUHU216HW,2013-02-19 22:55:00,
2013-02-19 15:00:00,46.4,40.7,29.74,SW,225,7.2,7.4,80,0.00,,,0.72,WUHU216HW,2013-02-19 23:00:00,
2013-02-19 15:06:00,46.4,40.0,29.73,WSW,248,4.7,7.4,78,0.00,,,0.72,WUHU216HW,2013-02-19 23:06:00,
2013-02-19 15:11:00,46.4,39.0,29.73,WSW,248,3.6,7.4,75,0.00,,,0.72,WUHU216HW,2013-02-19 23:11:00,
2013-02-19 15:17:00,46.1,39.6,29.73,NW,315,2.9,7.4,78,0.00,,,0.72,WUHU216HW,2013-02-19 23:17:00,
2013-02-19 15:22:00,46.1,39.6,29.73,West,270,4.5,6.3,78,0.00,,,0.72,WUHU216HW,2013-02-19 23:22:00,
2013-02-19 15:27:00,45.9,39.2,29.72,WNW,293,5.4,5.4,77,0.00,,,0.72,WUHU216HW,2013-02-19 23:27:00,
2013-02-19 15:32:00,46.1,39.3,29.72,WSW,248,2.0,6.3,77,0.00,,,0.72,WUHU216HW,2013-02-19 23:32:00,
2013-02-19 15:39:00,45.7,39.2,29.72,WNW,293,1.6,6.3,78,0.00,,,0.72,WUHU216HW,2013-02-19 23:39:00,
2013-02-19 15:44:00,45.4,39.2,29.72,NNE,23,3.1,3.1,79,0.00,,,0.72,WUHU216HW,2013-02-19 23:44:00,
2013-02-19 15:50:00,45.0,38.9,29.72,WNW,293,1.8,3.1,79,0.02,,,0.74,WUHU216HW,2013-02-19 23:50:00,
2013-02-19 15:55:00,44.8,39.3,29.72,NE,45,0.4,1.8,81,0.02,,,0.74,WUHU216HW,2013-02-19 23:55:00,
2013-02-19 16:00:00,44.6,39.2,29.72,WNW,293,0.4,3.8,81,0.02,,,0.74,WUHU216HW,2013-02-20 00:00:00,
2013-02-19 16:06:00,44.5,39.3,29.72,NW,315,5.6,5.6,82,0.02,,,0.74,WUHU216HW,2013-02-20 00:06:00,
2013-02-19 16:11:00,44.3,38.5,29.72,WSW,248,8.5,8.5,80,0.02,,,0.74,WUHU216HW,2013-02-20 00:11:00,
2013-02-19 16:16:00,44.5,37.7,29.72,West,270,7.6,13.2,77,0.02,,,0.74,WUHU216HW,2013-02-20 00:16:00,
2013-02-19 16:21:00,44.3,37.2,29.71,WSW,248,7.6,13.2,76,0.04,,,0.76,WUHU216HW,2013-02-20 00:21:00,
2013-02-19 16:27:00,44.1,36.6,29.71,West,270,3.6,8.9,75,0.04,,,0.76,WUHU216HW,2013-02-20 00:27:00,
2013-02-19 16:32:00,43.9,36.2,29.71,West,270,2.9,8.3,74,0.04,,,0.76,WUHU216HW,2013-02-20 00:32:00,
2013-02-19 16:37:00,43.7,36.0,29.71,WNW,293,3.4,7.4,74,0.04,,,0.76,WUHU216HW,2013-02-20 00:37:00,
2013-02-19 16:42:00,43.6,35.2,29.70,West,270,6.9,10.5,72,0.04,,,0.76,WUHU216HW,2013-02-20 00:42:00,
2013-02-19 16:47:00,43.6,34.8,29.71,WNW,293,1.3,10.5,71,0.02,,,0.76,WUHU216HW,2013-02-20 00:47:00,
2013-02-19 16:52:00,43.6,34.8,29.71,SSW,203,4.9,9.2,71,0.02,,,0.76,WUHU216HW,2013-02-20 00:52:00,
2013-02-19 16:57:00,43.6,34.8,29.71,WSW,248,4.7,7.6,71,0.02,,,0.76,WUHU216HW,2013-02-20 00:57:00,
2013-02-19 17:02:00,43.6,34.8,29.71,West,270,1.8,7.6,71,0.02,,,0.76,WUHU216HW,2013-02-20 01:02:00,
2013-02-19 17:07:00,43.6,34.8,29.71,WNW,293,2.9,8.3,71,0.02,,,0.76,WUHU216HW,2013-02-20 01:07:00,
2013-02-19 17:12:00,43.4,34.7,29.71,West,270,4.7,8.3,71,0.02,,,0.76,WUHU216HW,2013-02-20 01:12:00,
2013-02-19 17:17:00,43.4,34.7,29.70,NW,315,5.4,6.9,71,0.00,,,0.76,WUHU216HW,2013-02-20 01:17:00,
2013-02-19 17:23:00,43.2,34.5,29.71,NNW,338,2.5,6.9,71,0.00,,,0.76,WUHU216HW,2013-02-20 01:23:00,
2013-02-19 17:28:00,43.0,34.3,29.71,NW,315,2.2,6.9,71,0.00,,,0.76,WUHU216HW,2013-02-20 01:28:00,
2013-02-19 17:33:00,42.8,34.2,29.71,WNW,293,6.7,6.7,71,0.00,,,0.76,WUHU216HW,2013-02-20 01:33:00,
2013-02-19 17:38:00,42.5,34.1,29.71,WNW,293,0.9,6.7,72,0.00,,,0.76,WUHU216HW,2013-02-20 01:38:00,
2013-02-19 17:43:00,42.5,34.5,29.71,West,270,0.4,3.1,73,0.00,,,0.76,WUHU216HW,2013-02-20 01:43:00,
2013-02-19 17:48:00,42.1,34.4,29.71,NW,315,1.6,3.1,74,0.00,,,0.76,WUHU216HW,2013-02-20 01:48:00,
2013-02-19 17:53:00,41.9,34.2,29.71,WSW,248,0.2,1.6,74,0.00,,,0.76,WUHU216HW,2013-02-20 01:53:00,
2013-02-19 17:58:00,41.6,33.8,29.71,NNW,338,0.0,1.3,74,0.00,,,0.76,WUHU216HW,2013-02-20 01:58:00,
2013-02-19 18:05:00,41.4,34.0,29.71,NNE,23,1.1,1.1,75,0.00,,,0.76,WUHU216HW,2013-02-20 02:05:00,
2013-02-19 18:10:00,41.0,34.3,29.71,WSW,248,0.0,1.1,77,0.00,,,0.76,WUHU216HW,2013-02-20 02:10:00,
2013-02-19 18:15:00,40.7,33.9,29.71,West,270,0.0,0.4,77,0.00,,,0.76,WUHU216HW,2013-02-20 02:15:00,
2013-02-19 18:21:00,40.5,33.9,29.71,NNE,23,0.2,0.2,77,0.00,,,0.76,WUHU216HW,2013-02-20 02:21:00,
2013-02-19 18:25:00,40.1,34.1,29.72,NNE,23,0.2,0.7,79,0.00,,,0.76,WUHU216HW,2013-02-20 02:25:00,
2013-02-19 18:30:00,40.0,33.9,29.72,ENE,68,0.4,0.9,79,0.00,,,0.76,WUHU216HW,2013-02-20 02:30:00,
2013-02-19 18:36:00,39.8,33.9,29.72,NE,45,0.4,0.9,79,0.00,,,0.76,WUHU216HW,2013-02-20 02:36:00,
2013-02-19 18:41:00,39.4,33.5,29.72,NE,45,0.4,0.7,79,0.00,,,0.76,WUHU216HW,2013-02-20 02:41:00,
2013-02-19 18:46:00,39.2,33.3,29.72,ENE,68,0.0,0.4,79,0.00,,,0.76,WUHU216HW,2013-02-20 02:46:00,
2013-02-19 18:51:00,39.1,33.1,29.72,ENE,68,0.0,0.4,79,0.00,,,0.76,WUHU216HW,2013-02-20 02:51:00,
2013-02-19 18:56:00,38.9,33.3,29.73,NE,45,0.4,0.4,80,0.00,,,0.76,WUHU216HW,2013-02-20 02:56:00,
2013-02-19 19:01:00,38.7,33.1,29.73,NW,315,0.0,0.4,80,0.00,,,0.76,WUHU216HW,2013-02-20 03:01:00,
2013-02-19 19:06:00,38.5,33.2,29.73,West,270,1.6,1.6,81,0.00,,,0.76,WUHU216HW,2013-02-20 03:06:00,
2013-02-19 19:11:00,38.5,33.2,29.73,WNW,293,0.0,1.6,81,0.00,,,0.76,WUHU216HW,2013-02-20 03:11:00,
2013-02-19 19:16:00,38.5,33.2,29.73,NNW,338,0.9,0.9,81,0.00,,,0.76,WUHU216HW,2013-02-20 03:16:00,
2013-02-19 19:21:00,38.5,33.2,29.73,WNW,293,3.1,3.1,81,0.00,,,0.76,WUHU216HW,2013-02-20 03:21:00,
2013-02-19 19:27:00,38.5,33.5,29.74,NW,315,1.1,3.1,82,0.00,,,0.76,WUHU216HW,2013-02-20 03:27:00,
2013-02-19 19:32:00,38.3,33.3,29.74,NW,315,0.4,1.1,82,0.00,,,0.76,WUHU216HW,2013-02-20 03:32:00,
2013-02-19 19:37:00,38.3,33.3,29.74,WNW,293,0.4,1.3,82,0.00,,,0.76,WUHU216HW,2013-02-20 03:37:00,
2013-02-19 19:42:00,38.3,33.3,29.74,West,270,1.1,1.3,82,0.00,,,0.76,WUHU216HW,2013-02-20 03:42:00,
2013-02-19 19:47:00,38.3,33.3,29.74,WNW,293,0.9,1.3,82,0.00,,,0.76,WUHU216HW,2013-02-20 03:47:00,
2013-02-19 19:52:00,38.3,33.3,29.74,WNW,293,0.4,1.8,82,0.00,,,0.76,WUHU216HW,2013-02-20 03:52:00,
2013-02-19 19:57:00,38.3,33.3,29.74,WNW,293,0.0,1.8,82,0.00,,,0.76,WUHU216HW,2013-02-20 03:57:00,
2013-02-19 20:02:00,38.3,33.3,29.73,WNW,293,1.1,1.6,82,0.00,,,0.76,WUHU216HW,2013-02-20 04:02:00,
2013-02-19 20:07:00,38.2,33.1,29.74,WNW,293,2.0,2.0,82,0.00,,,0.76,WUHU216HW,2013-02-20 04:07:00,
2013-02-19 20:12:00,38.2,33.1,29.74,NNW,338,0.7,2.2,82,0.00,,,0.76,WUHU216HW,2013-02-20 04:12:00,
2013-02-19 20:18:00,38.2,33.1,29.74,WSW,248,2.0,2.5,82,0.00,,,0.76,WUHU216HW,2013-02-20 04:18:00,
2013-02-19 20:23:00,38.2,33.1,29.74,WNW,293,0.9,2.5,82,0.00,,,0.76,WUHU216HW,2013-02-20 04:23:00,
2013-02-19 20:28:00,38.0,32.9,29.74,WNW,293,0.4,2.0,82,0.00,,,0.76,WUHU216HW,2013-02-20 04:28:00,
2013-02-19 20:33:00,37.8,32.8,29.74,NW,315,0.2,1.1,82,0.00,,,0.76,WUHU216HW,2013-02-20 04:33:00,
2013-02-19 20:39:00,37.8,32.8,29.74,NW,315,0.0,1.1,82,0.00,,,0.76,WUHU216HW,2013-02-20 04:39:00,
2013-02-19 20:44:00,37.6,33.0,29.74,NNW,338,0.0,0.4,83,0.00,,,0.76,WUHU216HW,2013-02-20 04:44:00,
2013-02-19 20:49:00,37.3,32.6,29.75,North,0,0.4,0.4,83,0.00,,,0.76,WUHU216HW,2013-02-20 04:49:00,
2013-02-19 20:54:00,37.1,32.4,29.75,North,0,0.0,0.4,83,0.00,,,0.76,WUHU216HW,2013-02-20 04:54:00,
2013-02-19 20:59:00,37.1,32.7,29.75,NNW,338,0.2,0.4,84,0.00,,,0.76,WUHU216HW,2013-02-20 04:59:00,
2013-02-19 21:00:00,36.9,32.5,29.75,NW,315,0.4,0.4,84,0.00,,,0.76,WUHU216HW,2013-02-20 05:00:00,
2013-02-19 21:01:00,36.9,32.5,29.75,NW,315,0.4,0.4,84,0.00,,,0.76,WUHU216HW,2013-02-20 05:01:00,
2013-02-19 21:02:00,36.7,32.3,29.76,North,0,0.4,0.4,84,0.00,,,0.76,WUHU216HW,2013-02-20 05:02:00,
2013-02-19 21:07:00,36.7,32.3,29.76,NNW,338,0.2,0.4,84,0.00,,,0.76,WUHU216HW,2013-02-20 05:07:00,
2013-02-19 21:12:00,36.5,32.1,29.76,NW,315,0.0,0.2,84,0.00,,,0.76,WUHU216HW,2013-02-20 05:12:00,
2013-02-19 21:17:00,36.4,32.0,29.76,West,270,0.2,0.2,84,0.00,,,0.76,WUHU216HW,2013-02-20 05:17:00,
2013-02-19 21:22:00,36.4,32.0,29.77,NW,315,0.2,1.1,84,0.00,,,0.76,WUHU216HW,2013-02-20 05:22:00,
2013-02-19 21:27:00,36.2,31.8,29.76,NW,315,0.0,1.1,84,0.00,,,0.76,WUHU216HW,2013-02-20 05:27:00,
2013-02-19 21:33:00,36.2,31.8,29.76,NW,315,0.2,0.4,84,0.00,,,0.76,WUHU216HW,2013-02-20 05:33:00,
2013-02-19 21:38:00,36.0,31.9,29.76,NW,315,0.4,0.4,85,0.00,,,0.76,WUHU216HW,2013-02-20 05:38:00,
2013-02-19 21:43:00,36.0,31.9,29.76,NW,315,0.0,0.4,85,0.00,,,0.76,WUHU216HW,2013-02-20 05:43:00,
2013-02-19 21:48:00,36.0,32.1,29.76,West,270,0.4,1.3,86,0.00,,,0.76,WUHU216HW,2013-02-20 05:48:00,
2013-02-19 21:53:00,36.0,32.1,29.76,NW,315,0.0,1.3,86,0.00,,,0.76,WUHU216HW,2013-02-20 05:53:00,
2013-02-19 21:58:00,36.0,32.1,29.76,West,270,0.0,0.4,86,0.00,,,0.76,WUHU216HW,2013-02-20 05:58:00,
2013-02-19 22:03:00,35.8,32.0,29.76,West,270,0.0,0.4,86,0.00,,,0.76,WUHU216HW,2013-02-20 06:03:00,
2013-02-19 22:08:00,35.6,31.5,29.76,North,0,0.0,0.4,85,0.00,,,0.76,WUHU216HW,2013-02-20 06:08:00,
2013-02-19 22:13:00,35.6,31.5,29.77,WNW,293,0.7,0.7,85,0.00,,,0.76,WUHU216HW,2013-02-20 06:13:00,
2013-02-19 22:18:00,35.6,31.5,29.77,WNW,293,0.0,0.7,85,0.00,,,0.76,WUHU216HW,2013-02-20 06:18:00,
2013-02-19 22:23:00,35.5,31.3,29.77,WNW,293,0.0,0.7,85,0.00,,,0.76,WUHU216HW,2013-02-20 06:23:00,
2013-02-19 22:28:00,35.5,31.3,29.77,WNW,293,0.0,0.0,85,0.00,,,0.76,WUHU216HW,2013-02-20 06:28:00,
2013-02-19 22:33:00,35.3,31.1,29.78,WNW,293,0.0,0.0,85,0.00,,,0.76,WUHU216HW,2013-02-20 06:33:00,
2013-02-19 22:38:00,35.1,31.2,29.78,North,0,0.2,0.2,86,0.00,,,0.76,WUHU216HW,2013-02-20 06:38:00,
2013-02-19 22:44:00,34.9,31.1,29.78,North,0,0.0,0.4,86,0.00,,,0.76,WUHU216HW,2013-02-20 06:44:00,
2013-02-19 22:49:00,34.9,31.1,29.77,North,0,0.0,0.4,86,0.00,,,0.76,WUHU216HW,2013-02-20 06:49:00,
2013-02-19 22:54:00,34.7,30.9,29.78,North,0,0.0,0.2,86,0.00,,,0.76,WUHU216HW,2013-02-20 06:54:00,
2013-02-19 22:59:00,34.6,30.7,29.78,North,0,0.0,0.2,86,0.00,,,0.76,WUHU216HW,2013-02-20 06:59:00,
2013-02-19 23:04:00,34.6,30.7,29.78,North,0,0.0,0.2,86,0.00,,,0.76,WUHU216HW,2013-02-20 07:04:00,
2013-02-19 23:09:00,34.6,30.7,29.78,West,270,0.7,0.7,86,0.00,,,0.76,WUHU216HW,2013-02-20 07:09:00,
2013-02-19 23:14:00,34.7,30.9,29.78,WNW,293,0.2,0.7,86,0.00,,,0.76,WUHU216HW,2013-02-20 07:14:00,
2013-02-19 23:19:00,34.9,31.3,29.78,NW,315,0.4,0.4,87,0.00,,,0.76,WUHU216HW,2013-02-20 07:19:00,
2013-02-19 23:24:00,34.9,31.3,29.78,NW,315,0.0,0.4,87,0.00,,,0.76,WUHU216HW,2013-02-20 07:24:00,
2013-02-19 23:29:00,34.9,31.3,29.78,WNW,293,0.0,0.4,87,0.00,,,0.76,WUHU216HW,2013-02-20 07:29:00,
2013-02-19 23:34:00,34.9,31.3,29.79,WNW,293,1.3,1.3,87,0.00,,,0.76,WUHU216HW,2013-02-20 07:34:00,
2013-02-19 23:39:00,35.3,32.1,29.79,WNW,293,0.4,1.3,88,0.00,,,0.76,WUHU216HW,2013-02-20 07:39:00,
2013-02-19 23:44:00,35.5,32.2,29.79,West,270,0.7,1.6,88,0.00,,,0.76,WUHU216HW,2013-02-20 07:44:00,
2013-02-19 23:49:00,35.8,32.6,29.79,NW,315,0.9,1.8,88,0.00,,,0.76,WUHU216HW,2013-02-20 07:49:00,
2013-02-19 23:54:00,36.0,32.8,29.79,NW,315,0.4,1.8,88,0.00,,,0.76,WUHU216HW,2013-02-20 07:54:00,
2013-02-19 23:59:00,36.2,33.0,29.79,WNW,293,0.0,0.7,88,0.00,,,0.76,WUHU216HW,2013-02-20 07:59:00,